Погода в Богучаре

Погода в Богучаре : погода сейчас, прогноз погоды и архив. Всё, что Вы хотите узнать о погоде в Богучаре!

Хотите узнать прогноз погоды в Богучаре? Тогда Вам сюда: Погода в Богучаре

Поиск расширенной информации на нашем сайте:

Другие новости

Новости СМИ2

Главная страница сайта

Новости сайта

03.07.2017

Напоминаем, что на нашем специализированном сайте Метеоцентр.Азия вы можете получить высокодетализированные автоматические прогнозы погоды по пунктам России, СНГ и мира в авиационном формате (включающие направление и скорость ветра, видимость, явления погоды, количество и форму облачности, нижнюю и верхнюю границу облачности).


Погода в Богучаре - сегодня

Время (UTC), дата Ветер
(°,м/с) 
Видим.   Явления Облачность Т
(°С)
Тd
(°С)
f(%) Тe
(°С)
Pmin
(гПа)
dP
(гПа)
Po
(мм)
O2
(г/м3)
Тmin Tmax R s Состояние
почвы
18 20.02.18 090 (В) 10 км    10/0 средняя 
[As op]
-3.7 -8.1 71 -6  1035.2  1.2  768  315           
21 20.02.18 200 (Ю) 10 км    8/0 средняя 
[Ac trans]
-9.2 -11.7 82 -9  1024.5  0.3  760  318           
00 21.02.18 230 (ЮЗ) 10 км    8/0 средняя 
[Ac trans]
-8.1 -10.4 83 -8  1024.9  0.4  760  317           
03 21.02.18 270 (З) 10 км    10/0 средняя 
[As trans]
-8.2 -10.9 81 -8  1025  0.1  761  317  -9.5      равномерный
сухой снег
100% 
06 21.02.18 200 (Ю) 10 км  в посл. час ливневой снег  10/4 600 м кучево-дожд., средняя 
[Cb calv|Ac trans]
-8.3 -9.3 92 -8  1025.9  0.9  761  317  -9.6         
09 21.02.18 290 (З) 20000 м    6/6 1000 м 
[Sc]
-5 -9.5 71 -7  1025.9  0.2  761  313           
12 21.02.18 290 (З) 20000 м    4/4 1000 м 
[Sc]
-3.7 -9.4 65 -5  1025.6  -0.3  761  312           
15 21.02.18 290 (З) 20000 м    10/0 верхняя 
[Cc]
-5.8 -10.1 72 -5  1025.2  -0.5  761  314    -3.7  0.0     
18 21.02.18 тихо ()   10 км    ясно 
-9.5 -12.1 81 -10  1026.3  0.9  761  319           
21 21.02.18 тихо ()   10 км    10/0 верхняя 
[Cs]
-11.2 -13.2 85 -11  1026.5  0.2  762  321           
00 22.02.18 тихо ()   10 км    10/0 верхняя 
[Cs]
-11.5 -13.5 85 -12  1026.5  762  322           
03 22.02.18 тихо ()   10 км    10/0 верхняя 
[Cs]
-11.1 -13.1 85 -11  1026.2  -0.3  761  321  -11.7      равномерный
сухой снег
100% 
06 22.02.18 050 (СВ) 10 км    9/0 верхняя 
[Ci fib]
-9 -10.6 88 -11  1026  -0.1  761  318           
09 22.02.18 020 (С) 20000 м    6/0 верхняя 
[Ci fib]
-5.1 -10.1 68 -7  1026.1  0.3  761  314           
12 22.02.18 020 (С) 20000 м    4/0 верхняя 
[Ci fib]
-4.2 -10.1 63 -6  1025.9  -0.2  761  313           
15 22.02.18 020 (С) 20000 м    6/0 верхняя 
[Cc]
-6.8 -12 66 -8  1026.3  0.3  762  316    -4.2       
18 22.02.18 020 (С) 10 км    ясно 
-10.5 -14.1 75 -12  1027.4  0.9  762  321           
21 22.02.18 020 (С) 10 км    ясно 
-12.5 -15.2 80 -15  1027.7  0.2  762  323           
00 23.02.18 тихо ()   10 км    ясно 
-15.9 -17.8 85 -16  1027.7  -0.2  762  328           
06 23.02.18 050 (СВ) 20000 м    ясно 
-16.4 -18.3 85 -19  1028.1  0.3  763  328  -10.8         
09 23.02.18 050 (СВ) 20000 м    8/0 верхняя 
[Ci fib]
-9.6 -14.2 69 -13  1027.3  -0.5  762  320           
12 23.02.18 020 (С) 20000 м    8/0 средняя, верхняя 
[Ac inh|Ci fib]
-7.1 -14 58 -10  1026  -1.1  761  316           
15 23.02.18 020 (С) 20000 м    4/0 средняя 
[Ac trans]
-9.6 -15.4 63 -11  1026.3  0.1  761  319    -6.6       
18 23.02.18 020 (С) 10 км    ясно 
-12.6 -16.1 75 -15  1025.4  -0.9  761  323           
21 23.02.18 020 (С) 10 км    ясно 
-14.4 -17.1 80 -17  1025.4  -0.1  761  325           
Время (UTC), дата Ветер
(°,м/с) 
Видим.   Явления Облачность Т
(°С)
Тd
(°С)
f(%) Тe
(°С)
Pmin
(гПа)
dP
(гПа)
Po
(мм)
O2
(г/м3)
Тmin Tmax R s Состояние
почвы

Для получения пояснительной информации подведите курсор к названию столбца.

ПОГОДА в Богучаре - архив

Всё, что Вы хотите узнать о погоде в Богучаре - удобно и подробно!

Выберите нужную дату (начиная с 1 января 2015* года) и нажмите кнопку "Найти".
Будут отображены архивные сводки погоды по пункту Богучар, начиная с указанной даты.


Отображать данные в формате CSV (для использования в таблицах Excel)


Внимание! Наш архив погоды предназначен исключительно для личного некоммерческого использования в познавательных целях. Если Вам необходимы официальные справки о состоянии погоды (для производственных, юридических, коммерческих и т.п. целей), обращайтесь в органы Росгидромета.

*Примечание: данная дата относится к архиву по метеостанциям СССР (Россия, СНГ, Балтия).
Архив по метеостанциям Зарубежной Европы и Азии (кроме Китая) хранится 10 дней, по другим регионам земного шара (Китай, Африка, Америка, Австралия, Океания) - 1 день.

Богучар - район местоположения метеостанции


Название, широта, долгота, высота метеостанции:
Богучар 49.9°ш. 40.6°д. 84 м над ур. моря [Российская Федерация]

Дополнительная информация

В oтличие oт бoльшинства пoгoдных сайтoв мы публикуем пoдрoбную метеoинфoрмацию в детальнoм прoфессиoнальнoм фoрмате.

Характеристики температуры и влажнoсти вoздуха измеряются на высoте 2 м в тени вдали oт зданий и деревьев.
Скoрoсть ветра измеряется на высoте 10 м (на урoвне рoста челoвека скoрoсть ветра ниже в 1.5-2 раза). Если метеoстанция нахoдится в гoрoде или в лесу, тo скoрoсть ветра занижена на 2-4 м/с пo сравнению с oткрытым местoм. Скoрoсть ветра над акватoриями крупных рек и oзёр, а также на вершинах хoлмoв на 2-5 м/с выше, чем в oбычных услoвиях.
Атмoсфернoе давление в разных тoчках местнoсти мoжет значительнo oтличаться oт давления на метеoстанции, в зависимoсти oт услoвий рельефа (при пoдъёме на 10 м давление пoнижается примернo на 1 мм рт.ст.).